EHI
15 15 12 12 16 20 23 25 23 19 19 20 18 15 13 13 12 9 6 4 4 4 3 3 3 3 3 3 3 3 2 1 1 3 6 6 4 1 0 0 0 0 0
14 15 16 16 18 19 20 21 21 20 19 20 19 15 13 11 10 9 8 6 5 4 4 3 3 3 3 3 3 3 1 0 0 2 5 7 5 2 0 0 0 0 0
12 15 18 19 18 15 15 16 20 21 21 22 21 17 13 9 7 9 10 8 7 7 5 4 3 4 3 3 3 3 1 0 0 1 3 6 5 3 1 0 0 0 0
10 13 17 18 17 13 12 15 20 22 22 22 21 17 12 7 6 8 9 10 9 8 6 4 5 5 4 3 3 3 2 0 0 0 2 4 5 4 2 0 0 0 0
8 10 13 15 16 14 13 15 19 21 19 19 17 14 11 7 6 7 7 8 8 7 5 4 7 8 6 4 4 3 2 1 1 1 1 3 4 3 1 0 1 1 1
9 9 11 13 14 15 14 14 17 18 17 15 13 11 10 9 8 7 5 5 6 6 5 5 7 9 7 6 6 5 3 2 2 2 2 3 4 3 2 1 2 2 2
11 12 11 11 12 13 12 12 15 17 16 15 13 9 8 8 7 7 5 4 6 7 6 6 8 8 6 6 6 6 5 4 3 3 3 3 4 4 4 3 3 3 3
11 12 13 10 10 11 10 11 15 16 14 14 13 8 6 6 5 5 4 4 6 7 7 8 8 7 5 4 6 6 6 5 4 3 3 4 4 4 4 3 3 3 3
7 10 11 10 9 10 9 9 12 14 12 12 11 9 7 6 4 3 3 3 4 5 6 7 8 7 6 5 5 6 7 6 4 2 3 4 5 4 3 3 3 3 3
7 9 10 9 10 9 7 7 9 10 11 10 9 8 7 6 5 4 4 4 3 3 3 4 6 6 6 5 5 5 5 6 5 3 2 3 3 3 3 3 3 4 4
10 10 10 9 8 7 4 5 7 9 8 8 7 6 6 6 6 5 5 4 4 3 2 2 3 4 4 5 5 4 4 5 5 3 1 1 1 2 3 3 4 5 5
10 10 10 8 6 5 4 4 6 8 6 4 5 6 5 5 5 5 4 4 3 3 3 2 1 1 2 4 4 3 3 4 4 2 0 0 0 1 2 3 3 4 5
7 8 7 5 4 5 4 4 4 4 3 2 3 5 5 6 6 5 4 3 3 3 4 4 2 1 2 3 3 2 2 2 2 1 0 0 0 1 2 2 2 3 3
5 5 4 4 5 5 4 2 2 1 1 1 2 3 5 6 7 6 6 5 5 5 5 5 4 3 3 3 3 2 3 2 1 0 0 0 0 1 2 2 2 2 2
3 4 5 5 5 5 3 1 2 1 0 0 1 2 3 5 7 8 9 9 8 7 7 7 6 6 4 3 3 3 3 3 2 0 0 0 0 1 1 1 2 2 3
2 5 8 8 7 5 2 1 2 2 1 0 0 1 2 4 6 8 10 11 11 9 9 8 8 8 6 3 2 2 3 2 1 0 0 0 0 0 0 0 1 1 1
2 6 9 9 9 6 3 2 3 3 2 1 1 1 2 3 5 6 7 9 10 10 10 9 9 9 7 2 0 1 2 1 0 0 0 0 0 0 0 0 0 0 0
2 5 7 8 8 7 5 4 5 4 3 2 2 2 2 3 4 4 4 6 8 9 9 9 9 8 6 2 0 0 1 1 1 2 1 0 0 0 0 0 0 0 0
3 4 5 6 7 7 7 6 5 4 3 2 2 3 3 3 2 3 3 4 5 7 7 6 6 5 3 1 0 0 0 1 2 3 2 1 0 0 0 0 0 0 1
2 3 5 6 7 8 8 6 4 3 1 1 1 2 3 2 1 1 2 2 3 3 3 3 4 3 2 1 0 0 0 1 3 3 3 1 0 0 0 0 1 1 2
2 3 5 6 7 8 8 7 5 3 1 0 0 1 2 1 0 0 1 1 1 1 1 1 2 2 1 0 0 0 0 1 2 3 3 2 1 0 0 0 1 2 2
4 5 6 6 7 8 10 10 7 4 1 0 0 0 1 1 0 0 0 0 0 0 1 1 1 1 0 0 0 0 0 0 1 2 2 2 1 0 0 0 1 1 1
6 6 7 7 8 8 10 11 10 6 2 0 1 1 0 0 0 0 0 0 0 0 1 2 2 2 1 0 0 0 0 0 0 1 1 1 0 0 0 0 0 0 0
4 5 6 7 7 8 9 11 11 8 4 2 2 2 1 0 0 0 0 0 0 0 1 2 2 3 2 1 0 0 0 0 0 0 0 0 0 0 0 0 0 0 0
2 2 3 4 5 6 8 10 11 8 5 3 3 2 1 0 0 0 0 0 0 0 0 1 1 2 2 1 0 0 0 0 0 0 0 0 0 0 0 0 0 0 0
1 1 1 2 3 5 7 11 11 7 4 4 3 2 1 0 0 0 0 0 0 0 0 0 0 1 1 0 0 0 0 0 0 0 0 0 0 0 1 1 1 0 0
Wind_Speed
6 6 6 6 6 6 6 6 6 6 5 5 5 5 5 4 4 3 5 5 5 5 4 4 5 4 4 3 4 3 4 3 2 3 3 3 4 3 3 3 2 2 3
6 7 7 7 7 7 7 7 7 7 6 5 4 3 4 4 4 4 4 5 5 5 5 4 4 4 3 4 4 3 2 2 3 3 3 3 4 4 4 3 4 3 3
7 7 7 7 7 7 7 6 7 7 7 6 5 4 4 4 4 5 5 5 6 6 4 5 4 4 4 4 4 4 4 3 3 3 3 3 2 1 4 4 3 3 3
7 7 7 8 7 7 7 7 7 7 7 7 6 7 6 5 5 5 4 5 6 6 5 5 5 4 3 3 5 4 3 4 4 3 3 3 3 3 2 4 4 4 4
6 7 7 7 6 6 6 6 6 7 7 7 7 7 6 5 5 5 5 5 5 5 5 5 4 4 4 3 3 3 4 4 4 3 3 3 3 5 4 3 2 3 3
6 6 6 5 5 5 5 5 6 6 7 7 7 7 7 6 6 6 6 6 5 5 5 5 4 4 3 4 4 4 5 4 4 4 4 4 3 3 3 3 4 3 2
6 6 6 5 5 5 5 5 6 6 7 7 7 7 7 7 7 7 6 6 5 4 5 5 4 4 4 4 4 4 5 5 5 6 4 4 4 3 3 3 3 4 3
6 6 6 5 5 5 5 5 6 6 6 7 6 6 6 5 5 6 5 5 4 4 5 5 5 5 5 5 5 5 5 4 5 6 5 5 4 3 3 4 4 5 4
5 6 5 5 5 6 6 6 6 6 6 6 6 6 6 5 5 6 6 5 4 4 5 5 5 5 5 5 5 5 5 5 6 6 6 5 3 4 4 4 5 5 6
5 6 6 5 5 5 5 5 5 5 5 5 5 4 5 5 5 5 5 5 5 4 5 6 6 6 6 6 6 6 5 6 5 4 5 5 4 4 4 5 5 5 6
5 6 5 5 5 5 5 5 4 4 3 3 3 4 4 5 5 5 5 5 5 5 6 6 6 6 6 6 6 6 6 7 6 6 6 6 6 5 5 5 5 5 5
4 5 5 5 5 5 5 5 4 4 3 3 3 4 4 5 5 5 5 5 5 6 6 6 6 6 7 7 7 8 7 7 7 7 7 7 5 6 6 5 6 5 5
4 4 4 4 4 4 5 5 4 4 3 3 3 3 4 4 5 5 5 5 5 5 5 6 6 6 6 6 7 7 7 7 7 7 7 8 7 7 6 6 6 5 5
5 4 4 4 4 4 4 4 4 4 4 4 3 3 3 3 4 4 4 5 5 5 5 5 6 6 6 6 6 6 6 6 6 7 7 7 8 8 7 6 6 6 5
5 5 4 4 4 4 4 4 4 4 4 4 3 3 3 3 3 3 3 4 4 5 5 5 6 5 5 5 5 6 6 6 6 6 6 7 6 6 6 6 5 5 5
3 5 5 5 5 5 4 4 4 4 4 4 3 3 3 3 3 3 3 3 3 4 4 5 5 5 4 2 2 4 5 6 6 6 6 6 7 6 7 7 7 7 7
2 4 4 4 4 5 4 5 5 4 4 4 3 3 3 3 3 3 3 3 3 4 4 4 5 4 3 3 3 5 6 6 6 6 6 6 5 6 6 6 8 9 9
0 2 3 4 4 4 4 4 5 5 4 4 3 3 3 3 3 3 3 3 3 3 4 4 4 4 4 5 5 5 7 7 7 7 7 7 7 6 6 6 6 7 7
1 1 2 3 4 4 4 4 4 4 4 4 3 3 3 3 3 3 3 3 3 4 4 4 5 5 4 5 6 7 6 6 7 7 7 7 7 4 4 7 7 7 6
1 1 2 3 4 4 4 4 4 4 4 3 3 3 3 3 3 2 2 2 3 3 4 4 4 5 5 5 7 8 6 6 6 6 6 6 7 5 6 7 7 7 7
1 0 2 3 3 4 4 4 4 4 3 3 2 2 2 2 3 2 2 2 3 3 4 4 4 5 5 6 8 8 6 6 6 5 5 3 5 7 7 8 7 6 6
1 0 2 2 3 4 4 4 4 3 3 3 3 2 3 3 2 2 3 3 3 4 4 4 5 4 4 5 6 8 8 7 6 6 5 2 3 5 7 7 6 6 6
1 1 1 2 3 3 4 4 3 3 4 3 3 3 3 3 3 3 4 4 4 4 4 4 4 4 3 3 5 7 8 8 7 5 2 2 4 5 7 9 8 8 7
1 1 1 2 2 3 3 3 4 4 4 4 4 4 4 4 4 4 4 4 4 4 4 4 4 4 3 3 3 4 4 6 6 5 3 5 6 7 6 5 7 7 6
1 2 2 2 2 2 2 3 3 4 4 4 4 4 5 4 4 4 4 5 4 4 5 4 4 4 4 2 1 3 3 4 3 3 4 4 4 5 5 5 5 5 5
2 2 2 2 2 2 2 2 3 4 4 5 5 4 4 4 4 4 4 2 4 3 5 6 7 5 3 2 2 3 4 3 3 4 5 5 5 6 6 6 5 5 5
Wind_Direction
187 177 177 174 169 168 171 173 170 164 168 167 173 174 172 172 167 166 162 169 168 165 176 165 165 187 178 181 186 191 183 196 197 220 212 212 214 214 223 235 241 217 227
184 177 179 177 176 177 177 173 175 171 177 170 173 168 168 172 170 169 169 172 170 171 178 176 180 179 176 185 190 197 201 192 205 235 229 217 198 202 211 219 224 234 235
192 183 181 184 182 183 183 181 180 179 181 172 168 161 164 168 170 177 175 178 179 181 189 185 193 185 197 183 193 194 202 206 211 239 260 259 253 201 189 216 227 230 241
194 189 185 186 188 188 186 183 182 180 180 181 180 179 179 180 181 181 170 174 182 184 186 190 196 200 203 186 201 193 207 218 220 211 247 286 322 280 232 204 206 224 237
195 195 191 189 185 185 186 185 184 183 183 186 186 191 192 186 175 175 167 177 176 183 184 191 195 200 204 194 210 197 221 225 236 234 229 233 235 249 269 265 244 229 229
194 196 188 182 178 177 180 182 182 186 185 187 190 198 195 189 179 180 174 181 174 179 180 191 194 203 202 193 203 209 213 229 237 248 246 243 248 247 254 262 267 271 259
191 189 183 176 175 178 178 178 179 184 185 186 191 196 197 192 187 188 182 184 181 182 183 194 196 204 204 203 205 210 226 224 227 236 244 251 257 262 262 263 273 282 275
185 181 177 171 174 176 178 177 175 179 183 184 189 192 197 198 189 189 186 188 192 184 178 193 198 204 205 208 207 222 219 224 231 238 246 252 251 253 257 261 271 273 269
183 174 171 171 175 176 178 179 175 179 185 186 186 188 193 199 192 182 192 187 187 184 184 194 200 204 207 213 215 228 226 223 226 230 230 245 251 250 253 256 260 272 282
179 173 172 170 170 168 166 169 175 180 183 185 186 184 186 193 195 193 192 190 190 193 198 203 206 209 211 213 220 226 219 225 231 239 248 254 256 260 253 252 253 258 272
173 167 167 164 160 157 158 162 166 166 169 176 176 178 183 189 194 195 197 196 197 198 207 209 210 214 215 214 221 234 228 229 232 234 235 241 258 260 259 253 252 253 259
159 157 155 155 155 158 157 159 161 159 167 171 173 178 181 187 195 198 200 200 204 207 207 211 218 221 221 221 225 231 231 232 234 235 240 245 243 247 259 259 257 256 257
150 145 146 150 154 155 153 151 155 159 162 162 165 171 181 187 197 201 201 205 210 213 213 214 221 228 230 230 231 234 234 235 238 240 243 246 246 248 249 252 253 254 249
158 156 151 152 147 145 143 148 158 160 160 162 166 173 182 188 195 200 206 209 211 215 216 219 227 234 237 233 231 233 235 239 243 246 248 249 248 250 250 247 245 249 253
170 166 167 160 153 149 148 153 159 159 161 165 171 181 185 183 187 193 204 212 217 220 221 225 228 232 235 232 231 231 234 240 245 246 248 251 255 266 263 265 259 253 251
173 168 171 169 165 162 163 164 163 160 167 173 175 174 180 185 188 197 205 208 218 227 225 227 230 232 232 145 193 244 245 245 246 247 249 247 234 230 229 241 254 263 257
182 170 173 174 169 166 166 170 166 164 172 177 179 179 186 189 198 204 203 211 221 227 229 230 230 229 209 166 201 237 251 250 250 248 248 249 244 235 239 225 224 235 242
210 168 164 162 167 161 162 166 163 166 173 175 182 186 192 196 200 208 216 227 228 226 231 233 229 230 214 186 204 230 242 249 248 246 246 250 252 247 247 249 247 245 233
19 106 156 160 158 158 161 162 163 167 172 175 183 192 199 201 205 217 232 237 233 229 230 232 232 237 227 199 205 226 243 242 246 246 245 245 247 236 236 248 251 254 252
38 115 150 150 153 157 162 167 168 170 181 185 192 194 204 208 212 221 236 238 240 238 235 231 234 236 235 207 207 224 244 245 250 246 243 241 242 227 222 240 248 253 256
28 123 155 161 164 164 168 180 182 186 192 188 187 189 203 215 217 221 225 236 245 250 252 245 238 236 236 215 210 223 245 248 252 252 245 230 198 218 227 240 249 255 268
8 37 169 169 170 176 182 189 193 194 190 186 191 198 213 224 212 228 235 237 247 247 246 242 248 243 229 222 211 216 234 262 260 261 261 239 182 219 231 235 242 242 246
353 293 210 190 185 190 196 195 193 194 192 194 203 212 219 230 230 229 232 235 240 249 247 243 248 250 241 210 204 215 224 237 251 266 300 269 225 237 235 232 232 232 238
316 290 235 207 196 201 210 206 194 197 200 205 207 215 220 224 227 242 242 248 248 252 254 257 258 257 251 240 220 220 212 214 231 250 232 220 232 243 258 236 221 231 241
314 294 272 236 209 205 213 212 202 203 207 212 215 219 223 227 229 239 255 259 260 267 269 267 266 264 257 253 264 251 238 240 241 249 243 238 234 234 233 234 233 231 225
303 293 278 257 226 215 215 215 214 213 218 219 220 226 233 232 235 236 234 253 265 253 257 268 276 277 266 213 220 243 259 259 236 244 243 242 247 250 248 241 232 227 228